Weather History for Ann Arbor, MI

Change the Weather History Date:

Thursday, January 16, 2014

  Actual Average Record
Temperature  
Mean Temperature 23 °F -  
Max Temperature 27 °F 26 °F 41 °F (2012)
Min Temperature 19 °F 11 °F -13 °F (2009)
Degree Days  
Heating Degree Days 42    
Moisture  
Dew Point 19 °F    
Average Humidity 84    
Maximum Humidity 93    
Minimum Humidity 68    
Precipitation  
Precipitation 0.02 in - - ()
Sea Level Pressure  
Sea Level Pressure 29.72 in    
Wind  
Wind Speed 12 mph (SSW)    
Max Wind Speed 17 mph    
Max Gust Speed 24 mph    
Visibility 4 miles    
Events Fog , Snow    
Averages and records for this station are not official NWS values.
T = Trace of Precipitation, MM = Missing Value Source: NWS Daily Summary

Daily Weather History Graph

Daily Weather History Graph

Search for Another Location

Airport:

Trip Planner

Search our weather history database for the weather conditions in past years. The results will help you decide how hot, cold, wet, or windy it might be!

Date:

Astronomy

Jan. 16, 2014 Rise Set
Actual Time 8:00 AM EST 5:29 PM EST
Civil Twilight 7:29 AM EST 6:00 PM EST
Nautical Twilight 6:55 AM EST 6:34 PM EST
Astronomical Twilight 6:21 AM EST 7:08 PM EST
Moon 6:21 PM EST (1/16) 7:52 AM EST (1/16)
Length of Visible Light 10h 30m
Length of Day
9h 28m
Full, 100% of the Moon is Illuminated
Jan 16
Full
Jan 24
Last Quarter
Jan 30
New
Feb 6
First Quarter
Feb 14
Full

Hourly Weather History & Observations

Time (EST) Temp. Windchill Dew Point Humidity Pressure Visibility Wind Dir Wind Speed Gust Speed Precip Events Conditions
12:53 AM 19.0 °F 7.5 °F 10.0 °F 68% 29.95 in 10.0 mi SW 10.4 mph - N/A   Overcast
1:53 AM 19.0 °F 7.5 °F 10.0 °F 68% 29.95 in 10.0 mi SW 10.4 mph - N/A   Overcast
2:53 AM 19.0 °F 7.5 °F 10.9 °F 71% 29.94 in 10.0 mi SW 10.4 mph - N/A   Overcast
3:53 AM 19.0 °F 4.5 °F 10.9 °F 71% 29.92 in 10.0 mi SW 16.1 mph 24.2 mph N/A   Overcast
4:53 AM 19.0 °F 8.2 °F 12.0 °F 74% 29.87 in 10.0 mi SSW 9.2 mph - N/A   Overcast
5:46 AM 19.4 °F 8.6 °F 10.4 °F 68% 29.82 in 10.0 mi SSW 9.2 mph 20.7 mph N/A   Overcast
5:53 AM 19.0 °F 6.8 °F 12.0 °F 74% 29.86 in 10.0 mi SSW 11.5 mph - N/A   Overcast
6:53 AM 19.0 °F 6.8 °F 12.0 °F 74% 29.84 in 10.0 mi SSW 11.5 mph - N/A   Overcast
7:53 AM 19.9 °F 6.7 °F 12.9 °F 74% 29.81 in 10.0 mi South 13.8 mph 21.9 mph N/A   Overcast
8:53 AM 19.9 °F 6.7 °F 12.9 °F 74% 29.82 in 10.0 mi South 13.8 mph 21.9 mph N/A   Overcast
9:53 AM 21.0 °F 8.1 °F 15.1 °F 78% 29.81 in 3.0 mi South 13.8 mph 21.9 mph 0.00 in Snow Light Snow
10:12 AM 21.2 °F 8.3 °F 15.8 °F 80% 29.77 in 2.5 mi South 13.8 mph 21.9 mph 0.00 in Snow Light Snow
10:33 AM 21.2 °F 8.9 °F 15.8 °F 80% 29.76 in 2.0 mi South 12.7 mph 21.9 mph 0.00 in Snow Light Snow
10:51 AM 21.2 °F 8.9 °F 15.8 °F 80% 29.76 in 1.2 mi South 12.7 mph - 0.00 in Snow Light Snow
10:53 AM 21.9 °F 9.8 °F 16.0 °F 78% 29.80 in 1.2 mi South 12.7 mph - 0.00 in Snow Light Snow
11:10 AM 21.2 °F 8.9 °F 17.6 °F 86% 29.75 in 0.8 mi SSW 12.7 mph 23.0 mph 0.00 in Snow Light Snow
11:46 AM 23.0 °F 9.2 °F 17.6 °F 80% 29.74 in 1.0 mi South 17.3 mph 23.0 mph 0.00 in Snow Light Snow
11:53 AM 23.0 °F 10.1 °F 19.0 °F 85% 29.77 in 1.0 mi South 15.0 mph 23.0 mph 0.00 in Snow Light Snow
12:02 PM 23.0 °F 10.6 °F 19.4 °F 86% 29.73 in 0.8 mi South 13.8 mph 20.7 mph 0.00 in Snow Light Snow
12:36 PM 23.0 °F 11.1 °F 19.4 °F 86% 29.70 in 1.0 mi South 12.7 mph 20.7 mph 0.00 in Snow Light Snow
12:53 PM 23.0 °F 10.6 °F 19.0 °F 85% 29.73 in 0.8 mi South 13.8 mph 23.0 mph 0.00 in Snow Light Snow
1:53 PM 24.1 °F 13.7 °F 19.9 °F 84% 29.70 in 0.8 mi South 10.4 mph 24.2 mph 0.00 in Snow Light Snow
2:50 PM 24.8 °F 13.4 °F 21.2 °F 86% 29.65 in 0.5 mi South 12.7 mph 19.6 mph 0.00 in Fog , Snow Snow
2:53 PM 24.1 °F 12.5 °F 21.0 °F 88% 29.68 in 0.2 mi South 12.7 mph 19.6 mph 0.00 in Fog , Snow Snow
3:24 PM 24.8 °F 15.3 °F 21.2 °F 86% 29.64 in 0.5 mi South 9.2 mph 19.6 mph 0.01 in Fog , Snow Snow
3:38 PM 24.8 °F 14.6 °F 21.2 °F 86% 29.64 in 0.8 mi South 10.4 mph - 0.01 in Snow Light Snow
3:53 PM 25.0 °F 14.8 °F 21.0 °F 85% 29.68 in 0.8 mi South 10.4 mph 23.0 mph 0.01 in Snow Light Snow
4:15 PM 24.8 °F 14.6 °F 21.2 °F 86% 29.64 in 1.8 mi South 10.4 mph - 0.00 in Snow Light Snow
4:31 PM 24.8 °F 13.4 °F 21.2 °F 86% 29.64 in 3.0 mi South 12.7 mph 21.9 mph 0.00 in Snow Light Snow
4:53 PM 25.0 °F 13.6 °F 21.0 °F 85% 29.69 in 10.0 mi SSW 12.7 mph 19.6 mph 0.00 in   Overcast
5:53 PM 26.1 °F 15.0 °F 21.9 °F 84% 29.69 in 10.0 mi South 12.7 mph - N/A   Overcast
6:53 PM 26.1 °F 14.0 °F 21.9 °F 84% 29.69 in 8.0 mi South 15.0 mph 23.0 mph 0.00 in Snow Light Snow
7:53 PM 26.1 °F 15.0 °F 23.0 °F 88% 29.68 in 1.8 mi South 12.7 mph 18.4 mph 0.00 in Snow Light Snow
8:16 PM 26.6 °F 16.2 °F 23.0 °F 86% 29.64 in 2.5 mi South 11.5 mph 20.7 mph 0.00 in Snow Light Snow
8:25 PM 26.6 °F 14.7 °F 23.0 °F 86% 29.64 in 4.0 mi South 15.0 mph 19.6 mph 0.00 in Snow Light Snow
8:53 PM 27.0 °F 16.1 °F 24.1 °F 89% 29.67 in 3.0 mi South 12.7 mph 18.4 mph 0.00 in Snow Light Snow
9:08 PM 26.6 °F 14.7 °F 24.8 °F 93% 29.64 in 2.0 mi South 15.0 mph - 0.00 in Snow Light Snow
9:24 PM 26.6 °F 16.8 °F 24.8 °F 93% 29.64 in 3.0 mi South 10.4 mph 19.6 mph 0.00 in Snow Light Snow
9:42 PM 26.6 °F 16.8 °F 24.8 °F 93% 29.64 in 4.0 mi South 10.4 mph - 0.00 in Snow Light Snow
9:53 PM 27.0 °F 16.7 °F 24.1 °F 89% 29.68 in 3.0 mi SSW 11.5 mph - 0.00 in Snow Light Snow
10:01 PM 26.6 °F 16.8 °F 24.8 °F 93% 29.64 in 1.8 mi SSW 10.4 mph - 0.00 in Snow Light Snow
10:29 PM 26.6 °F 16.2 °F 24.8 °F 93% 29.63 in 2.5 mi SSW 11.5 mph - 0.00 in Snow Light Snow
10:39 PM 26.6 °F 16.2 °F 24.8 °F 93% 29.63 in 1.5 mi SSW 11.5 mph - 0.01 in Snow Light Snow
10:53 PM 27.0 °F 16.7 °F 24.1 °F 89% 29.66 in 1.5 mi SSW 11.5 mph - 0.01 in Snow Light Snow
11:03 PM 26.6 °F 16.2 °F 24.8 °F 93% 29.63 in 2.5 mi SSW 11.5 mph - 0.00 in Snow Light Snow
11:11 PM 26.6 °F 16.2 °F 24.8 °F 93% 29.63 in 4.0 mi SSW 11.5 mph - 0.00 in Snow Light Snow
11:23 PM 26.6 °F 17.5 °F 24.8 °F 93% 29.63 in 2.5 mi SSW 9.2 mph - 0.00 in Snow Light Snow
11:44 PM 26.6 °F 17.5 °F 24.8 °F 93% 29.62 in 4.0 mi SSW 9.2 mph - 0.00 in Snow Light Snow
11:53 PM 27.0 °F 18.0 °F 24.1 °F 89% 29.65 in 4.0 mi SSW 9.2 mph - 0.00 in Snow Light Snow